Weather observations for the past three days for
San Jose, San Jose International Airport
Imperial (Metric)
Date Time (pdt) Wind (mph) Vis. (mi.) Weather Sky Cond. Temperature (ºF) Relative Humidity Wind Chill (°F) Heat Index (°F) Pressure Precipitation (in)
Air Dwpt 6 hour altimeter (in) sea level (mb) 1 hr 3 hr 6 hr
Max. Min.
22 12:53 NW 7 10.00 Fair CLR 87.1 60.1 40% 87 29.84 1010.2
22 11:53 Vrbl 3 10.00 Fair CLR 84 57 40% 83 29.84 1010.5
22 10:53 Vrbl 5 10.00 Fair CLR 78.1 55.9 78.1 61 47% 79 29.86 1011.0
22 09:53 SW 3 10.00 Fair CLR 73 55.9 55% 29.86 1011.1
22 08:53 Vrbl 3 9.00 Fair CLR 69.1 55 61% 29.87 1011.4
22 07:53 SE 6 9.00 Fair CLR 64.9 54 68% 29.87 1011.3
22 06:53 S 8 9.00 A Few Clouds FEW008 62.1 54 75% 29.86 1011.0
22 05:53 S 5 10.00 A Few Clouds FEW008 62.1 53.1 73% 29.85 1010.8
22 04:53 SE 5 10.00 Fair CLR 61 53.1 64.9 61 75% 29.84 1010.5
22 03:53 SE 5 10.00 Fair CLR 64 54 70% 29.85 1010.6
22 02:53 Calm 9.00 Fair CLR 64 55.9 75% 29.85 1010.7
22 01:53 Calm 10.00 Fair CLR 64.9 57 76% 29.86 1011.0
22 00:53 N 3 10.00 Fair CLR 64 55.9 75% 29.87 1011.3
21 23:53 N 5 10.00 Fair CLR 64.9 55.9 73% 29.87 1011.5
21 22:53 NW 6 9.00 Fair CLR 64 55.9 75.9 64 75% 29.88 1011.7
21 21:53 NW 6 10.00 Fair CLR 64.9 55.9 73% 29.88 1011.8
21 20:53 NW 7 10.00 Fair CLR 66.9 57 71% 29.88 1011.7
21 19:53 NW 9 10.00 Fair CLR 69.1 57 66% 29.88 1011.7
21 18:53 NW 9 10.00 Fair CLR 72 57 59% 29.87 1011.5
21 17:53 NW 10 10.00 Fair CLR 73.9 57 56% 29.88 1011.6
21 16:53 NW 12 10.00 Fair CLR 75.9 57.9 80.1 73.9 54% 78 29.89 1011.9
21 15:53 NW 12 10.00 Fair CLR 77 57.9 52% 79 29.9 1012.5
21 14:53 NW 13 10.00 A Few Clouds FEW020 77 57.9 52% 79 29.92 1013.0
21 13:53 NW 10 10.00 A Few Clouds FEW020 78.1 57.9 50% 79 29.93 1013.5
21 12:53 N 8 10.00 A Few Clouds FEW020 79 57 47% 80 29.94 1013.9
21 11:53 Calm 10.00 A Few Clouds FEW020 77 55.9 48% 79 29.96 1014.3
21 10:53 Calm 10.00 A Few Clouds FEW020 75 55.9 75 60.1 52% 78 29.97 1014.8
21 09:53 Calm 10.00 A Few Clouds FEW015 70 55 59% 29.98 1015.2
21 08:53 N 3 10.00 A Few Clouds FEW013 68 55 63% 29.99 1015.5
21 07:53 Calm 10.00 A Few Clouds FEW007 FEW015 64.9 55 70% 29.99 1015.5
21 06:53 N 3 10.00 A Few Clouds FEW007 FEW015 63 54 73% 29.98 1015.1
21 05:53 N 3 10.00 A Few Clouds FEW008 FEW014 61 53.1 75% 29.97 1014.9
21 04:53 Calm 10.00 Fair CLR 61 54 64.9 60.1 78% 29.96 1014.5
21 03:53 Calm 10.00 Fair CLR 61 54 78% 29.96 1014.5
21 02:53 N 5 10.00 Fair CLR 61 54 78% 29.97 1014.9
21 01:53 N 5 10.00 Fair CLR 62.1 54 75% 29.97 1014.7
21 00:53 W 5 10.00 Fair CLR 62.1 54 75% 29.98 1015.0
20 23:53 N 3 10.00 Fair CLR 64 55 73% 29.98 1015.1
20 22:53 N 8 10.00 Fair CLR 64.9 55 80.1 64 70% 29.98 1015.2
20 21:53 NW 9 10.00 Fair CLR 66.9 55.9 68% 29.97 1014.9
20 20:53 NW 9 10.00 A Few Clouds FEW065 69.1 55.9 63% 29.96 1014.3
20 19:53 NW 9 10.00 Fair CLR 72 55.9 57% 29.94 1013.9
20 18:53 NW 9 10.00 Fair CLR 75.9 55.9 50% 78 29.93 1013.4
20 17:53 N 12 10.00 A Few Clouds FEW004 78.1 55.9 47% 79 29.92 1013.1
20 16:53 NW 15 10.00 A Few Clouds FEW050 79 55.9 84 78.1 45% 80 29.92 1013.0
20 15:53 NW 16 10.00 Fair CLR 82 57.9 44% 82 29.92 1013.0
20 14:53 NW 14 10.00 Fair CLR 82.9 57.9 43% 83 29.93 1013.3
20 13:53 NW 12 10.00 Fair CLR 82.9 57.9 43% 83 29.93 1013.5
20 12:53 NW 10 10.00 Fair CLR 82.9 59 44% 83 29.94 1013.7
20 11:53 NW 3 10.00 Fair CLR 81 57 44% 81 29.94 1013.8
20 10:53 N 6 10.00 Fair CLR 77 57.9 78.1 63 52% 79 29.95 1014.0
20 09:53 Vrbl 3 10.00 Fair CLR 75 55.9 52% 78 29.95 1014.0
20 08:53 W 3 10.00 A Few Clouds FEW045 71.1 57.9 63% 29.95 1014.2
20 07:53 NW 5 10.00 A Few Clouds FEW045 FEW100 68 57 68% 29.95 1014.0
20 06:53 Vrbl 3 10.00 A Few Clouds FEW045 FEW090 66 57 73% 29.93 1013.4
20 05:53 NW 6 10.00 Partly Cloudy SCT060 64 55.9 75% 29.92 1013.0
20 04:53 Calm 10.00 Fair CLR 66.9 57 71.1 64 71% 29.91 1012.9
20 03:53 NW 3 10.00 Fair CLR 66 55.9 70% 29.91 1012.9
20 02:53 NW 3 10.00 Fair CLR 66.9 57 71% 29.92 1013.2
20 01:53 NW 3 10.00 Fair CLR 66.9 57 71% 29.93 1013.5
20 00:53 NW 7 10.00 Light Rain CLR 68 55.9 65% 29.94 1013.7
19 23:53 W 8 10.00 Fair CLR 69.1 57.9 68% 29.94 1013.9
19 22:53 NW 8 10.00 Fair CLR 71.1 55.9 91.9 71.1 59% 29.95 1014.1
19 21:53 NW 8 10.00 Fair CLR 73 55.9 55% 29.95 1014.1
19 20:53 NW 6 10.00 A Few Clouds FEW055 FEW060 75.9 54 47% 78 29.94 1013.7
19 19:53 NW 10 10.00 A Few Clouds FEW055 82.9 48.9 31% 81 29.92 1013.0
19 18:53 NW 15 10.00 Fair CLR 86 48.9 28% 83 29.9 1012.5
19 17:53 NW 17 10.00 Fair CLR 90 48.9 24% 87 29.89 1012.2
19 16:53 NW 21 10.00 Fair and Breezy CLR 91.9 51.1 95 81 25% 89 29.9 1012.5
19 15:53 NW 15 10.00 Fair CLR 95 52 23% 92 29.91 1012.8
19 14:53 NW 15 10.00 Fair CLR 93.9 48.9 21% 91 29.94 1013.6
19 13:53 NW 8 10.00 Fair CLR 91 50 25% 88 29.95 1014.2
Date Time (pdt) Wind (mph) Vis. (mi.) Weather Sky Cond. Air Dwpt Max. Min. Relative Humidity Wind Chill (°F) Heat Index (°F) altimeter (in) sea level (mb) 1 hr 3 hr 6 hr
6 hour
Temperature (ºF) Pressure Precipitation (in)